RH
37 38 37 35 33 33 31 28 27 26 25 24 25 25 25 25 25 26 32 40 45 49 50 52 55 57 61 64 68 67 62 65 72 64 52 50 58 71 76 72 66 60 58 59 63 71 79 86 89 88 88 88 88 86 82 79 76 71 66 61 56 51 48 46 44 40 39 37 36 35 33 32 32 31 33 34 33 35 35 31 30 31 32 32 28
36 36 36 33 33 32 30 27 24 22 20 19 21 25 27 26 26 26 30 39 45 50 52 52 53 54 54 56 61 67 70 70 75 79 75 65 56 57 64 67 69 69 68 67 66 65 69 76 83 87 89 89 88 88 86 83 79 75 69 63 59 55 50 46 45 41 38 36 35 36 35 34 34 32 31 30 30 31 30 29 29 31 33 34 32
33 32 32 32 32 30 28 25 22 20 20 19 21 25 28 28 28 29 31 37 43 49 50 48 48 48 47 48 51 57 65 70 69 67 70 76 73 65 63 66 70 71 72 73 74 74 73 72 74 78 84 89 91 90 90 88 84 78 73 67 61 57 54 49 45 41 38 36 35 36 37 39 40 37 33 31 29 27 27 29 29 30 32 34 33
30 30 30 30 29 25 23 23 21 21 20 20 23 26 29 31 32 33 34 37 41 44 45 45 47 48 48 49 51 54 57 61 64 61 59 66 74 76 78 80 80 76 74 76 76 77 79 79 76 74 76 82 89 92 92 91 89 84 77 72 65 59 56 53 48 44 39 37 37 37 38 40 43 41 37 35 32 29 29 29 28 29 32 33 34
31 30 27 24 22 22 21 21 21 21 22 21 24 28 31 32 34 37 38 39 41 43 43 46 50 52 52 52 51 53 55 57 62 64 64 65 69 75 83 88 90 87 82 81 80 79 80 83 84 83 80 77 81 89 91 92 92 89 83 77 70 63 58 55 52 47 42 38 37 38 39 39 40 40 40 40 38 35 34 32 29 29 30 32 36
27 24 21 20 18 19 20 21 21 21 21 23 26 27 29 31 33 37 41 43 47 51 52 54 57 57 56 56 54 54 56 57 59 61 65 69 71 74 76 75 82 90 91 87 84 83 83 84 85 86 87 84 81 84 89 91 93 92 90 84 77 70 64 59 55 50 45 41 37 37 39 39 38 39 41 42 42 41 40 37 35 33 33 34 37
21 20 19 20 18 17 18 18 18 19 19 24 29 30 32 34 36 39 44 49 54 57 59 60 62 61 61 60 59 58 58 58 58 58 62 69 73 76 74 68 67 73 81 88 89 91 90 88 86 85 88 90 87 86 85 87 90 92 93 90 84 78 71 64 59 54 48 43 40 38 36 37 38 38 39 42 44 45 44 42 39 37 36 36 37
21 20 17 17 16 16 18 19 20 22 25 30 33 35 37 39 41 44 48 54 60 60 59 60 59 59 61 63 63 61 60 60 59 59 60 66 69 71 74 76 75 72 74 79 82 88 93 95 93 88 86 89 91 91 87 85 88 92 94 93 88 82 77 71 65 59 52 47 43 39 35 34 35 37 38 40 43 45 46 45 43 41 38 37 38
24 21 17 16 17 17 20 24 27 29 34 38 40 42 43 44 45 48 53 61 66 62 57 57 58 58 61 64 66 64 62 60 60 62 61 64 67 71 75 76 74 77 80 81 79 81 86 92 97 95 89 88 92 94 93 91 90 91 93 94 91 85 82 78 72 64 58 54 48 42 37 34 32 34 37 38 40 43 46 47 46 44 41 38 37
24 20 17 18 18 19 21 27 32 35 39 43 46 48 48 50 52 53 60 69 70 63 58 59 62 65 68 70 72 70 68 65 62 63 64 64 65 69 74 74 74 77 79 82 85 82 78 79 88 97 98 94 92 93 96 97 95 93 92 93 91 87 85 83 78 72 65 59 55 50 43 36 33 34 35 35 37 41 45 47 47 47 45 43 41
23 20 20 22 22 21 24 29 35 40 44 46 48 51 55 59 61 65 73 76 73 67 61 63 69 74 75 75 78 77 75 74 71 69 68 68 68 68 70 75 79 76 71 79 90 89 86 81 79 86 96 101 98 91 92 95 97 97 96 95 92 88 87 85 83 79 72 63 57 55 51 45 37 34 35 35 34 37 41 44 46 46 46 46 45
23 22 22 23 23 23 26 31 38 44 48 49 50 54 60 63 64 75 83 79 74 70 65 66 69 74 81 82 81 82 81 82 81 78 75 73 73 73 71 71 75 72 70 81 88 85 88 89 83 78 80 92 101 98 93 90 92 96 97 98 97 93 91 89 87 83 78 72 66 60 57 54 47 39 36 36 35 36 38 41 44 45 44 43 43
22 23 22 21 22 24 28 33 40 47 51 51 55 62 67 67 66 72 78 74 71 70 67 68 65 66 80 86 83 83 84 86 89 88 85 80 78 78 76 74 76 77 78 83 84 83 87 88 88 86 78 76 87 97 100 96 92 91 91 93 96 98 97 95 92 88 83 82 80 74 66 61 58 52 44 39 37 36 36 39 42 42 43 43 41
22 22 21 21 22 23 28 35 44 50 53 58 66 72 72 70 68 71 73 68 66 70 69 69 72 76 82 80 76 77 80 81 86 91 90 87 85 83 80 77 77 80 81 83 83 83 84 83 85 89 87 81 77 81 92 99 99 94 90 89 89 93 98 100 97 93 89 88 87 86 80 71 66 62 55 47 42 39 38 39 40 40 39 40 40
21 21 20 23 25 25 29 36 45 50 54 63 68 67 65 65 69 74 73 68 68 73 71 69 76 86 86 78 72 76 80 79 80 87 91 90 90 88 85 80 78 78 81 83 83 80 79 81 86 89 92 93 85 76 78 89 99 100 95 92 88 87 92 98 100 97 94 92 92 93 90 81 73 66 62 56 49 45 43 41 41 40 38 37 37
21 21 21 24 25 27 30 35 44 51 57 60 60 62 66 71 77 77 73 74 75 73 70 69 72 77 81 79 72 72 76 77 79 87 90 89 92 94 92 87 83 82 83 84 83 81 76 74 79 86 89 93 92 85 77 77 89 100 101 97 93 90 89 92 96 99 97 94 94 96 95 89 81 72 66 63 58 54 51 47 45 45 43 39 37
21 22 23 25 25 27 29 35 46 56 59 59 58 64 70 74 78 79 79 81 78 75 80 82 81 81 84 83 78 73 72 78 84 91 95 94 94 96 95 94 89 84 83 83 80 80 78 72 75 84 90 93 94 93 86 78 79 88 97 101 99 96 94 92 93 96 97 95 95 96 95 93 90 82 73 68 65 63 61 58 53 52 51 49 45
22 24 27 29 30 31 30 37 50 60 63 61 62 63 65 71 76 79 86 85 78 82 85 75 69 73 76 80 85 85 82 87 93 95 94 92 90 89 92 97 96 88 84 85 83 81 81 79 77 79 82 86 89 92 93 87 79 76 81 90 98 100 100 98 96 96 95 94 95 96 95 93 92 89 81 74 69 66 67 66 63 60 57 55 55
25 28 31 34 37 37 36 41 52 61 63 61 62 59 59 70 80 85 88 79 71 75 69 52 50 58 61 65 75 81 81 83 86 84 77 71 73 83 93 98 97 91 86 84 84 82 81 82 82 80 80 83 87 91 95 94 87 79 72 71 76 82 89 94 97 100 99 98 96 95 96 94 93 91 87 81 75 69 68 68 69 68 64 62 61
29 31 34 37 40 40 40 47 56 62 62 58 57 60 63 72 81 86 85 74 66 65 59 55 62 66 64 59 56 60 63 64 65 66 63 57 59 71 89 99 97 91 86 83 82 82 81 81 81 81 81 83 86 90 93 95 96 91 82 74 66 61 63 67 71 79 88 96 99 98 96 94 93 94 92 88 85 79 73 71 71 73 72 70 67
30 34 36 38 40 42 43 51 60 64 61 56 55 60 67 72 77 82 82 75 70 67 63 64 68 72 75 71 61 52 48 50 50 52 55 52 50 55 70 89 97 91 87 86 84 86 86 85 85 84 80 79 80 84 89 92 94 95 94 92 85 75 66 59 58 65 72 79 88 92 93 93 93 95 95 94 94 90 84 80 76 75 77 77 74
31 34 38 39 41 42 45 54 63 63 58 56 57 63 71 76 79 85 84 76 71 70 70 70 69 72 78 81 78 64 53 54 51 47 49 49 49 49 51 69 91 91 85 84 83 82 83 84 88 90 88 86 83 83 88 92 94 96 97 98 97 91 82 73 71 75 79 83 88 90 89 90 93 95 95 95 97 96 92 88 83 80 81 83 81
33 35 38 41 42 44 49 58 63 60 56 55 58 66 77 82 82 83 82 76 72 71 71 71 70 71 78 85 84 73 69 76 72 65 67 64 63 62 51 60 88 97 92 90 87 83 80 79 81 82 84 90 90 83 81 85 92 96 97 98 98 95 89 85 80 77 80 90 98 98 94 93 96 97 94 94 96 96 94 90 87 85 84 85 85
34 37 38 42 46 50 54 61 63 60 59 61 64 70 80 85 84 84 81 77 77 75 73 72 69 69 74 78 78 75 78 90 91 87 88 83 82 84 73 69 83 91 90 88 86 85 82 77 76 76 76 83 91 90 82 77 80 83 86 89 94 96 92 88 84 80 79 86 94 97 97 98 100 99 96 94 94 95 95 92 89 88 88 88 86
37 39 41 45 52 57 60 61 61 62 67 72 76 81 84 82 80 84 83 79 79 80 78 78 78 78 74 67 68 75 81 89 94 93 95 95 93 93 90 83 80 78 78 78 78 78 74 67 67 73 75 74 82 92 92 85 80 78 82 87 90 94 95 91 88 88 86 88 91 92 94 97 100 100 99 97 95 95 96 94 92 90 89 88 85
40 42 47 52 56 59 62 63 65 71 78 82 83 88 89 82 79 84 87 83 79 78 79 82 80 75 67 60 62 70 75 84 91 92 95 100 99 97 96 92 86 81 78 77 76 73 66 60 60 68 75 73 75 87 94 94 92 89 87 90 91 94 98 97 96 96 95 94 95 95 96 99 100 100 100 99 98 99 98 97 94 92 90 89 85
45 47 52 57 60 63 65 67 72 77 82 84 84 87 90 88 86 86 87 84 79 78 79 78 71 63 60 62 65 66 71 81 90 92 95 95 92 91 93 93 91 87 80 76 73 68 62 62 65 71 78 78 77 86 92 92 96 97 92 90 94 98 100 99 99 97 92 88 87 87 92 97 100 100 100 100 100 100 100 99 98 95 92 89 86
49 53 58 61 63 65 68 72 76 79 82 84 85 87 90 91 91 88 85 84 84 83 76 66 61 60 61 64 68 72 80 91 96 97 95 90 85 82 82 85 88 89 89 86 82 76 71 72 75 81 89 89 88 92 92 87 90 95 94 92 94 96 97 99 101 97 91 86 82 79 80 87 94 96 96 99 100 100 100 100 99 98 95 91 88
55 58 60 62 63 65 67 69 72 79 88 90 91 94 94 93 93 90 88 85 81 77 71 63 61 65 68 74 81 88 93 94 90 86 84 85 88 90 89 88 86 86 89 93 94 91 87 86 89 94 99 98 97 98 92 84 83 87 91 93 92 91 91 93 96 98 97 95 89 81 74 76 85 91 92 95 98 100 100 100 99 99 98 95 92
59 59 59 61 64 65 67 70 76 89 99 97 95 97 98 96 94 90 87 85 78 69 65 68 73 77 86 92 94 92 87 81 78 79 83 88 94 99 100 96 91 89 88 89 92 94 93 95 97 97 98 99 100 101 95 87 82 82 86 88 88 86 85 85 90 95 95 93 92 87 81 78 84 91 92 93 97 99 100 100 99 100 100 98 94
59 62 64 65 66 66 70 80 87 92 96 95 89 88 93 98 92 82 78 79 81 77 72 74 83 92 98 94 85 80 78 79 83 86 91 97 100 100 95 86 85 90 92 93 96 98 98 99 95 90 92 97 98 97 95 90 84 84 89 92 90 86 85 88 94 98 96 94 95 94 89 87 89 91 89 91 96 99 100 100 100 100 100 99 97
61 65 68 68 69 75 84 90 90 91 95 99 96 89 88 88 81 75 77 79 82 83 78 73 79 93 97 85 74 77 83 88 92 95 98 101 102 98 91 87 89 93 92 90 91 91 88 87 88 89 91 93 91 89 89 88 85 86 91 94 94 91 92 96 99 100 100 99 98 95 90 85 83 83 86 93 98 100 99 100 100 100 100 100 99
67 72 75 72 70 79 95 98 95 97 97 93 94 93 85 76 72 77 83 82 78 80 80 76 76 84 88 82 79 86 94 96 97 98 99 98 96 94 93 95 99 100 96 87 78 77 81 85 93 98 97 94 90 87 85 84 84 86 87 90 92 90 91 95 96 95 96 95 95 96 93 85 79 82 91 97 99 100 100 99 100 100 100 100 100
68 71 76 81 82 85 96 101 100 99 92 84 88 94 82 72 77 83 80 77 75 77 81 81 81 83 86 86 88 94 99 99 98 97 96 95 96 98 99 100 99 100 101 97 89 89 94 98 99 98 97 95 90 85 84 82 82 85 88 91 93 91 92 94 94 93 93 90 89 92 92 86 84 92 100 100 99 100 100 100 100 100 100 100 100
69 72 72 81 93 95 93 95 98 95 89 89 95 91 77 75 85 83 74 74 79 81 81 82 83 84 86 88 92 97 100 100 100 100 99 100 100 100 100 100 100 99 99 100 100 99 100 100 98 95 95 93 85 81 81 81 81 86 89 90 91 92 96 98 98 97 98 96 93 94 96 93 94 99 100 98 99 100 99 100 100 99 100 100 100
68 78 80 80 89 94 89 90 97 92 82 89 99 89 76 82 90 83 76 78 81 81 81 83 83 83 86 91 95 99 101 99 100 101 100 101 101 100 100 100 99 100 100 99 100 100 100 100 99 97 97 93 83 78 79 79 80 86 91 93 93 94 97 100 101 100 100 99 99 99 99 99 100 100 96 94 98 100 99 100 100 99 100 100 100
61 73 84 83 84 90 90 89 95 92 82 87 95 87 80 86 89 84 82 81 79 79 81 82 84 85 88 94 98 101 99 95 97 101 101 101 100 100 100 100 99 100 100 100 100 99 100 100 97 96 96 91 81 75 75 77 78 81 88 95 97 95 95 96 98 98 99 100 100 100 100 99 100 100 97 96 99 101 100 100 100 100 100 100 100
68 75 83 84 84 90 95 94 93 90 85 86 89 84 82 86 85 82 81 78 77 79 80 82 87 89 91 97 101 100 94 91 96 101 101 100 100 100 100 100 100 100 100 100 100 99 100 100 99 98 97 93 86 78 75 76 75 78 87 95 98 97 96 95 93 93 97 99 96 96 98 100 100 99 98 99 100 100 100 100 100 100 100 100 100
73 75 78 84 86 86 90 95 94 91 86 84 84 83 82 84 84 83 81 78 78 80 82 86 91 93 96 100 99 92 88 92 100 102 100 100 100 100 100 100 99 100 100 100 99 99 100 100 99 96 95 95 92 85 84 85 84 85 90 94 96 97 99 99 98 97 99 99 95 95 98 100 100 99 99 100 100 100 100 99 100 100 100 100 100
77 79 83 91 95 92 91 94 95 94 88 83 82 83 83 84 86 86 83 82 83 86 89 94 96 97 99 99 92 88 92 99 102 100 100 101 100 99 100 100 100 100 100 99 100 100 100 97 93 91 92 94 95 94 95 97 96 96 96 96 97 99 99 100 100 99 100 100 98 99 100 100 100 100 100 100 100 100 100 100 100 100 100 100 100
79 83 88 95 96 94 95 96 96 95 92 88 87 86 87 88 90 91 90 90 92 95 97 99 99 100 100 94 89 91 98 102 102 100 100 100 100 100 100 99 100 100 100 100 100 100 98 93 90 93 97 98 99 99 98 96 96 97 98 98 100 101 99 99 100 99 99 99 99 100 100 100 100 99 99 100 100 99 100 100 100 100 100 99 100
81 85 92 97 95 94 96 96 97 97 95 93 93 92 93 95 96 96 97 97 99 100 100 100 101 101 99 94 93 97 101 102 101 100 100 100 99 100 100 100 100 100 99 100 100 100 100 98 97 99 100 97 95 94 92 89 90 94 97 100 101 98 93 94 99 100 99 99 100 100 98 99 100 98 98 100 99 99 100 100 99 100 100 100 101
84 88 95 100 97 96 96 96 97 99 97 95 96 96 97 99 100 99 99 100 100 100 100 101 102 102 99 97 98 101 102 102 101 100 100 100 100 100 100 100 100 99 99 100 100 99 100 100 100 98 96 93 91 89 88 88 89 92 95 98 100 99 95 95 99 100 99 100 100 97 95 98 100 99 99 100 99 99 101 100 100 100 100 100 101
86 89 96 101 99 96 95 96 98 100 99 98 98 99 100 100 100 99 100 100 100 100 100 102 102 100 99 99 100 102 102 101 101 100 100 100 100 100 100 100 100 99 98 99 99 97 98 99 97 93 92 92 90 87 87 90 90 91 93 96 99 100 99 99 100 99 99 100 99 96 96 98 100 100 100 100 99 100 100 99 99 100 100 100 101
90 93 97 100 101 98 96 96 98 98 98 99 100 101 101 101 100 99 100 100 100 100 100 101 100 99 99 100 101 101 102 102 101 100 100 100 100 100 99 100 100 98 98 99 100 98 98 98 96 93 94 97 95 91 90 91 91 94 97 98 100 100 100 100 100 99 99 99 99 99 99 100 100 100 100 99 99 99 98 98 99 100 100 100 100
90 94 99 101 100 99 96 96 99 99 98 99 100 101 100 100 100 100 100 100 100 100 100 100 100 99 98 100 101 99 100 101 101 101 101 100 100 100 99 100 101 100 99 99 100 101 100 99 98 98 99 98 95 93 93 93 93 97 100 100 100 100 100 100 100 99 99 99 100 100 100 100 100 100 100 99 100 100 99 98 100 100 100 100 100
87 91 99 101 99 99 98 97 98 99 99 99 101 101 100 100 101 101 100 100 100 100 100 100 100 99 97 99 99 97 96 96 98 100 101 100 100 101 100 99 100 99 96 95 97 100 100 99 100 100 98 95 95 97 98 96 94 97 100 100 100 99 100 100 100 100 100 100 100 100 100 100 100 100 100 100 99 100 100 99 100 101 99 99 100
91 95 100 101 100 100 100 98 97 98 99 100 100 101 100 100 100 100 100 100 100 100 100 100 100 100 100 99 99 97 95 94 95 99 101 101 100 100 100 100 101 100 96 96 99 100 99 99 101 100 97 95 97 100 100 97 96 98 100 100 100 100 99 99 99 100 100 100 100 100 100 100 100 99 100 100 99 100 100 99 100 100 100 101 101
95 100 101 100 101 100 99 99 99 99 100 100 100 100 101 100 101 101 100 100 100 100 100 100 100 100 101 101 100 99 97 96 97 99 101 101 100 101 101 99 99 101 100 99 99 100 100 100 100 99 98 98 99 100 100 99 98 99 100 100 100 99 99 100 100 99 99 99 100 101 100 100 100 100 99 100 100 100 98 97 99 99 99 100 101
99 100 99 101 103 101 99 101 101 99 100 100 99 100 101 100 100 100 100 100 100 100 100 100 100 100 100 100 100 98 97 99 100 100 101 99 96 98 101 101 99 99 101 101 100 99 100 100 98 98 99 100 100 100 100 98 98 99 100 100 99 98 99 99 98 98 98 99 99 100 100 99 100 100 100 100 99 95 92 96 100 100 99 100 100
102 100 99 101 102 100 99 101 101 100 100 100 100 101 101 101 100 100 100 100 100 100 100 100 100 100 100 100 100 99 99 100 100 100 101 98 92 87 91 98 101 100 99 99 98 97 99 100 99 99 100 100 100 101 100 98 99 100 99 98 99 99 99 98 94 94 98 100 99 100 100 100 100 100 99 98 95 91 90 96 101 101 100 100 98
Wind_Speed
11 11 14 21 22 22 28 30 27 29 34 34 35 34 30 29 30 31 31 27 25 25 22 20 19 20 19 19 19 19 17 16 18 19 19 21 21 21 21 22 22 24 26 28 30 31 33 35 36 37 38 35 33 35 40 44 45 46 48 48 48 49 48 47 46 43 41 39 36 35 35 35 35 35 36 37 36 35 34 33 33 32 32 31 30
13 15 18 22 23 25 29 29 28 31 36 38 37 33 29 29 31 31 29 27 26 24 22 22 22 22 22 22 22 22 19 17 18 19 19 22 23 22 22 22 24 25 26 26 27 27 30 34 37 38 38 38 36 33 34 40 44 44 46 48 48 49 50 49 48 45 43 43 40 34 31 31 33 34 36 37 38 37 36 36 35 34 34 34 33
16 19 22 23 24 27 29 28 29 32 37 38 35 31 29 29 30 29 28 27 26 24 23 24 24 24 24 26 27 24 21 20 21 22 21 21 22 23 23 22 23 24 25 26 27 26 25 28 33 36 39 40 39 36 31 33 39 43 44 46 48 48 48 48 49 51 49 44 39 35 34 32 28 32 38 39 39 39 38 38 38 37 36 35 35
20 22 24 25 27 28 30 29 30 33 37 36 33 30 29 28 28 28 28 27 27 26 26 25 25 24 24 26 27 26 25 24 23 24 24 21 21 21 21 21 21 22 23 24 25 27 26 26 27 28 33 37 40 42 37 32 33 39 42 44 46 47 47 48 49 51 51 47 41 36 32 29 28 36 42 40 39 39 40 40 39 39 38 37 37
22 23 24 28 29 30 31 30 32 35 36 35 34 31 29 28 27 28 29 28 27 27 26 26 25 25 26 27 27 27 27 27 24 24 24 22 22 21 20 19 20 20 21 21 22 24 25 26 26 25 25 30 36 42 44 39 33 33 37 40 44 47 47 47 47 48 51 53 49 39 28 26 33 38 36 36 39 40 40 40 40 40 40 39 39
19 21 27 31 31 32 33 33 36 37 34 33 33 31 29 28 28 28 28 27 26 25 25 25 24 25 26 27 28 29 29 28 26 26 25 24 24 25 24 24 23 22 22 21 21 22 22 24 26 26 25 26 30 36 42 44 39 34 34 36 39 44 46 45 45 47 50 52 53 49 40 37 39 34 27 28 32 35 36 37 38 39 39 40 40
21 24 30 32 33 35 36 37 39 37 34 32 33 31 29 29 28 27 26 27 28 28 26 25 26 27 27 28 29 29 30 30 29 28 26 25 25 27 29 30 29 28 27 24 22 22 22 22 23 25 26 26 28 31 36 42 43 40 36 35 36 38 42 43 44 46 48 50 52 52 48 41 37 34 32 28 26 29 32 34 35 37 37 38 39
24 28 32 34 36 39 40 41 39 37 35 33 32 32 30 29 28 27 28 29 29 27 26 26 28 28 28 29 29 28 29 30 30 29 28 27 27 29 31 30 29 29 30 29 27 25 23 22 22 23 25 26 28 30 32 36 42 43 39 38 37 36 39 41 43 43 46 50 52 50 47 41 34 33 35 34 30 31 33 35 36 36 36 36 36
26 29 33 36 38 39 40 40 39 38 37 35 33 31 30 29 29 29 30 29 25 24 26 27 28 28 28 29 29 28 29 30 31 30 30 29 28 28 29 30 30 30 30 29 30 29 27 25 23 22 24 26 27 30 32 34 39 42 41 41 40 39 39 41 42 43 45 48 49 48 47 44 37 31 31 35 36 34 33 37 38 36 36 36 35
29 30 32 35 38 40 39 38 38 38 37 34 33 32 31 30 31 32 31 27 24 25 27 28 29 29 29 30 30 30 29 31 32 32 32 31 31 30 28 29 31 30 29 28 29 30 30 30 27 23 22 23 26 28 30 33 36 41 43 43 42 41 38 40 43 44 44 45 46 47 47 45 42 37 34 34 36 35 34 36 38 37 37 37 35
30 31 33 37 41 42 39 38 39 39 37 35 33 31 30 31 32 33 31 27 25 27 29 30 30 29 28 30 31 32 31 31 31 32 32 31 31 32 30 29 29 29 30 30 30 29 29 30 30 29 25 23 23 26 28 30 32 37 42 44 45 44 40 39 42 44 42 41 41 44 47 47 46 44 42 38 36 35 34 34 35 35 34 33 33
32 34 37 43 45 43 40 40 40 39 38 36 33 31 32 35 35 33 33 29 26 28 30 32 33 31 28 29 32 33 33 33 33 33 32 32 31 30 30 30 30 30 31 31 30 28 27 27 28 29 30 28 26 25 26 28 28 30 34 39 43 45 44 40 41 44 44 41 39 39 43 47 47 47 46 42 39 36 33 32 32 31 31 30 28
37 40 44 46 44 41 39 39 39 38 38 36 33 32 35 37 35 33 32 30 27 29 31 34 36 35 30 29 31 33 33 33 33 33 33 33 33 31 30 30 30 30 30 29 27 27 26 26 26 27 28 30 29 28 27 27 27 27 27 30 33 39 43 43 42 44 46 43 39 37 39 42 45 47 47 45 43 39 34 31 31 29 29 30 28
45 45 46 44 42 39 37 37 38 38 36 33 31 34 37 38 35 33 31 30 29 31 34 36 36 34 31 30 33 33 33 34 34 33 33 32 33 34 33 32 33 33 30 28 27 26 26 27 28 28 28 28 29 30 30 28 27 28 27 26 27 30 36 41 41 43 45 44 40 35 35 37 40 44 46 46 44 42 39 36 31 26 23 27 30
46 45 42 40 42 40 37 37 37 34 32 32 34 38 40 38 34 32 30 30 30 32 36 37 34 32 31 31 33 33 33 35 35 35 34 31 33 36 34 32 33 33 31 28 26 25 26 28 29 29 29 29 28 28 29 28 27 28 28 28 28 27 29 35 39 40 42 44 43 37 32 33 36 39 43 45 45 45 43 40 36 30 24 24 28
44 42 40 41 43 40 37 36 33 30 32 35 39 40 37 35 32 31 31 30 31 34 38 37 35 33 31 31 33 34 35 37 36 35 34 33 34 35 33 32 32 31 30 29 28 26 27 29 30 30 30 29 28 27 27 28 27 27 28 29 31 30 29 31 34 37 39 41 43 40 35 32 33 34 38 41 43 45 44 41 40 39 33 27 26
42 40 40 42 42 39 36 34 30 31 35 37 38 36 33 33 33 32 31 29 32 34 35 36 36 35 33 32 33 34 36 38 36 34 34 34 35 34 33 32 32 31 29 28 28 28 28 29 29 29 28 28 28 27 26 26 27 27 28 28 29 30 30 31 32 34 37 38 40 40 39 36 33 31 33 36 39 42 43 42 41 43 41 35 31
40 40 42 42 41 39 37 33 31 33 36 35 34 33 34 36 35 31 29 29 31 30 32 39 42 40 38 36 34 33 34 35 34 33 34 35 36 35 31 30 31 30 27 27 27 27 27 28 28 29 29 29 29 28 27 25 25 27 28 28 28 27 28 29 30 32 34 35 37 38 39 40 36 33 32 33 35 39 42 42 42 42 43 42 39
41 42 42 40 40 40 38 33 33 35 35 33 33 34 37 37 34 29 27 28 28 27 34 46 47 43 41 39 36 35 36 37 36 35 37 38 37 35 32 30 29 27 25 26 27 27 28 28 28 29 28 28 29 28 27 25 25 25 26 27 28 27 27 27 27 28 28 30 33 34 35 37 38 37 36 34 34 37 39 40 41 42 43 44 44
43 43 41 41 41 41 38 35 36 36 33 33 35 37 37 35 32 29 27 28 27 30 39 47 45 42 42 41 40 39 41 43 41 39 40 39 36 35 34 31 26 24 25 26 25 26 27 27 28 28 28 28 28 27 27 26 26 25 25 25 25 25 27 27 27 26 26 27 29 30 31 31 33 36 39 39 38 38 39 40 41 42 43 44 44
45 43 42 42 42 42 40 38 39 36 33 36 39 38 36 35 33 31 29 29 31 36 42 45 44 44 43 42 42 44 47 47 46 44 43 42 39 35 35 31 26 25 27 27 26 25 26 27 28 28 29 28 28 27 27 27 27 27 25 24 24 23 24 26 26 26 26 26 27 29 30 29 29 31 34 37 40 40 40 40 41 41 43 44 44
46 44 44 43 43 44 43 42 40 36 35 38 40 39 37 35 33 31 30 31 35 39 41 42 44 44 43 43 44 49 50 45 44 45 44 43 41 37 35 34 30 28 27 25 25 24 23 25 27 28 29 29 28 28 28 27 28 28 27 26 26 25 23 23 24 25 26 27 27 28 29 29 29 30 31 33 36 39 40 41 41 42 42 43 44
46 46 44 42 44 46 45 43 40 37 38 41 41 40 37 34 33 32 32 34 38 40 40 41 44 45 43 44 48 53 51 42 38 40 39 39 39 36 33 33 30 27 23 22 22 22 22 24 26 26 27 29 30 29 29 28 28 28 28 28 29 29 28 26 25 24 24 25 27 29 30 29 29 30 31 32 34 37 40 41 42 42 42 43 43
46 46 45 45 46 46 44 43 41 40 42 42 42 40 36 34 35 34 34 37 40 40 41 44 45 44 43 47 51 52 46 39 35 34 34 33 33 33 31 30 29 26 24 24 24 25 25 25 28 28 28 28 30 30 31 30 29 29 29 30 30 30 30 29 27 26 24 23 25 27 29 30 30 31 31 33 34 37 40 42 42 42 42 43 43
46 46 46 46 45 44 44 44 44 44 45 45 44 39 34 35 37 36 36 39 40 40 42 43 42 41 46 51 51 47 41 36 33 31 30 30 28 29 28 28 29 30 30 29 28 29 29 29 29 30 30 30 29 30 32 32 30 29 30 31 31 31 31 30 28 27 26 24 24 25 27 28 30 32 33 33 34 36 39 41 42 42 42 43 43
47 46 44 43 43 45 46 47 47 48 49 49 44 37 34 37 38 35 35 38 41 43 42 42 44 49 55 54 48 42 38 35 32 30 30 30 27 26 26 26 26 28 29 30 31 32 32 31 31 31 32 32 30 29 31 32 31 30 30 31 32 33 33 32 31 30 29 28 27 26 26 27 29 32 33 34 34 36 38 41 42 43 43 43 43
45 44 43 44 45 47 49 50 50 52 52 48 42 39 38 38 36 34 36 40 43 43 43 46 51 55 53 46 39 36 35 33 31 31 30 30 30 29 28 28 27 28 29 31 33 34 33 32 31 32 32 33 32 30 29 30 30 29 29 31 33 34 34 33 33 32 31 30 29 28 27 27 29 31 32 33 33 34 37 40 42 42 43 43 43
46 46 47 48 48 49 50 50 50 52 51 47 45 42 38 36 35 36 38 40 40 41 46 52 54 48 41 36 34 33 32 31 30 29 29 30 31 30 30 30 30 30 30 31 31 32 31 30 30 31 31 32 32 30 29 29 29 30 31 34 35 35 34 33 34 33 32 31 29 28 28 28 28 30 31 32 32 33 35 39 41 42 42 43 43
49 50 51 51 51 51 51 52 53 51 46 42 40 37 36 37 37 36 37 39 41 44 49 51 47 40 34 33 32 31 30 30 31 31 31 31 30 29 28 28 29 31 31 30 29 29 30 31 31 30 31 32 32 30 29 29 29 31 33 35 36 36 34 33 34 34 34 33 32 31 30 29 29 29 29 30 31 32 34 37 40 42 43 43 43
49 52 54 53 52 53 52 54 52 42 34 34 37 37 38 37 34 35 39 42 45 48 47 45 40 35 31 29 29 30 32 33 33 32 31 31 30 29 28 28 29 30 31 31 29 29 31 32 32 31 31 32 31 30 30 30 29 30 32 34 35 35 33 33 34 34 34 35 35 34 32 30 29 29 29 29 30 31 33 35 38 41 43 44 44
52 53 54 54 54 53 51 50 45 38 35 40 45 44 39 34 34 41 45 42 40 39 39 38 35 31 29 32 34 34 33 33 32 31 31 31 30 30 31 33 33 32 30 30 29 29 29 29 31 33 32 32 31 31 31 31 29 28 29 31 33 33 32 33 34 35 35 36 35 34 32 29 27 28 29 29 30 31 34 35 38 41 43 44 45
55 55 55 57 55 53 52 50 47 42 39 39 42 43 38 37 42 46 41 36 34 33 34 36 34 30 32 36 35 32 30 30 30 30 30 30 30 33 36 37 35 30 28 29 29 29 29 30 32 32 29 29 29 29 29 29 28 28 28 29 31 31 31 32 34 35 36 35 34 33 32 30 29 28 29 30 30 31 33 36 39 41 42 43 45
54 54 55 56 58 57 53 47 42 39 39 41 41 37 37 43 46 41 34 33 35 35 35 37 35 33 34 34 31 28 29 29 30 30 30 31 33 36 37 36 32 27 25 27 28 29 29 28 28 26 24 25 27 27 28 28 28 28 29 29 30 30 31 33 35 36 35 34 32 32 32 32 32 31 30 30 30 30 32 36 38 40 42 43 44
53 55 54 53 56 57 51 43 39 39 44 48 41 34 39 46 42 34 31 35 38 37 37 37 35 32 32 30 28 28 29 30 32 32 32 34 36 37 35 31 27 24 24 24 24 24 23 21 20 21 22 23 25 26 26 26 26 27 28 28 29 30 31 33 34 35 35 33 31 31 33 34 35 35 32 30 30 31 32 35 36 38 41 43 43
53 55 55 53 53 55 54 51 48 44 46 47 39 36 43 43 34 31 35 37 37 37 35 34 32 30 29 29 29 30 30 33 34 35 35 36 37 36 32 26 23 22 23 25 25 24 23 21 18 19 20 22 24 24 24 24 24 24 26 26 28 30 31 32 33 34 35 33 32 32 33 35 37 39 36 32 30 30 32 35 37 38 40 42 43
53 52 51 54 55 55 55 54 49 48 50 45 36 36 42 37 30 33 37 37 36 35 34 32 31 30 30 30 31 31 33 36 37 37 37 36 35 32 26 23 22 20 20 23 23 22 20 19 18 19 21 23 23 22 23 24 23 23 24 25 27 29 31 32 33 35 34 33 32 32 33 36 39 41 39 35 31 29 31 34 37 39 40 40 41
55 51 48 52 54 51 51 50 45 45 48 43 33 34 39 37 34 35 36 36 35 33 32 32 32 32 32 31 31 33 37 39 39 39 37 35 32 28 23 20 20 18 17 18 19 19 17 16 16 18 20 22 22 21 22 24 24 23 23 24 27 29 31 32 33 33 33 33 33 33 34 37 41 42 40 36 32 29 30 33 36 40 40 39 39
54 52 51 54 53 51 49 47 44 42 42 40 36 36 37 36 37 37 36 35 33 32 33 33 33 33 33 32 33 36 39 41 39 38 36 31 28 24 19 17 17 17 16 15 17 19 18 16 17 18 20 22 23 22 22 22 23 22 22 24 28 30 31 33 34 33 33 34 34 34 35 38 41 40 37 35 32 29 30 32 36 40 40 39 39
51 52 55 55 55 56 52 44 40 39 39 39 38 38 37 36 36 37 35 34 33 33 33 34 34 34 33 33 35 38 39 39 38 35 31 27 24 20 16 15 15 15 16 16 18 21 20 18 18 19 20 22 23 23 23 23 23 23 23 26 30 31 32 33 34 34 33 33 34 34 35 38 39 37 34 32 29 29 31 32 35 41 41 40 39
54 55 55 52 52 56 53 45 39 38 38 39 37 37 37 36 35 35 34 34 34 33 33 34 35 34 34 35 38 38 37 37 35 32 27 23 21 18 14 13 14 14 15 18 20 21 20 19 18 18 19 21 23 24 25 26 27 28 28 28 31 32 32 31 32 33 34 34 35 35 34 34 34 32 31 30 27 28 32 32 35 41 43 41 39
55 57 55 52 52 53 49 43 40 38 37 37 36 36 35 35 35 35 34 33 33 33 34 34 34 34 35 37 37 36 35 34 30 27 23 20 18 17 15 14 15 15 16 19 21 21 21 20 19 19 20 22 24 26 27 28 30 30 28 26 27 30 29 28 29 32 34 35 34 32 30 30 29 27 27 27 24 27 32 33 34 39 41 40 38
56 55 51 51 55 55 49 44 40 35 33 33 34 35 35 35 35 34 33 34 34 34 34 34 34 36 37 38 37 34 33 31 27 24 22 18 15 16 16 16 17 18 18 19 22 23 22 22 21 20 23 25 26 26 26 25 25 26 24 22 25 29 30 29 30 32 34 33 31 28 25 25 25 24 23 23 21 26 33 33 32 35 38 38 37
57 57 52 51 55 55 49 44 40 34 32 33 34 35 35 35 36 35 36 37 36 35 35 36 38 39 38 38 36 33 31 28 24 21 20 17 16 17 16 15 16 17 17 18 21 21 20 20 21 23 26 26 24 22 21 20 19 20 21 20 21 24 25 28 30 31 30 29 26 22 20 20 23 22 20 19 21 27 32 31 29 32 35 36 35
57 56 51 49 54 56 49 43 40 37 36 37 35 35 36 37 37 38 39 38 36 35 37 39 40 40 39 38 36 32 29 26 23 21 20 18 17 17 15 13 13 14 16 19 22 21 20 22 24 26 26 23 20 21 21 19 18 18 17 18 18 17 18 22 24 24 23 21 19 18 16 17 18 18 18 19 22 27 30 29 26 28 32 34 35
56 55 50 48 52 54 49 45 43 41 41 39 37 36 37 38 39 40 39 37 36 38 40 40 40 40 40 38 35 31 28 26 24 22 20 18 16 16 15 14 14 15 15 18 23 25 23 24 26 25 23 20 20 22 21 18 16 15 13 14 13 14 15 16 16 15 14 14 14 14 14 13 15 17 18 18 21 27 29 25 23 26 30 31 33
54 55 53 49 49 49 48 47 46 44 42 41 38 36 37 38 40 40 38 37 38 39 40 40 40 41 39 37 34 32 28 26 23 20 18 18 17 17 17 16 16 17 16 19 24 27 27 26 24 22 21 20 20 21 20 17 13 12 10 9 8 10 11 11 11 10 11 11 12 12 12 13 15 17 18 19 24 28 26 22 23 28 30 29 30
55 55 52 49 48 49 48 48 48 45 43 41 39 37 37 38 39 39 37 38 39 39 40 41 41 40 38 36 34 31 27 25 23 20 18 17 17 17 17 17 17 17 18 20 24 28 29 26 22 21 23 22 18 17 19 15 10 7 5 4 8 10 10 11 11 11 11 11 10 10 12 15 16 18 19 21 25 28 25 24 28 30 27 25 27
55 55 51 46 46 48 48 49 49 46 42 40 40 39 39 39 40 39 38 38 39 40 40 41 40 39 37 35 33 31 28 26 23 21 19 17 17 17 16 16 17 17 18 20 25 28 28 23 21 24 25 19 13 14 17 14 7 3 0 7 12 12 11 11 10 11 11 10 10 12 16 18 18 19 21 24 28 30 28 28 30 28 24 23 25
55 52 48 44 43 45 48 48 48 44 40 39 41 41 40 40 40 39 38 38 40 40 41 41 39 38 37 35 33 31 29 27 25 23 20 17 17 17 17 17 18 16 15 18 23 26 23 20 22 24 19 12 10 13 14 9 3 2 3 9 12 10 9 9 9 12 14 15 17 20 22 23 22 21 25 29 31 29 26 26 28 26 23 24 26
53 51 47 41 40 44 48 47 44 42 39 39 41 41 40 40 39 38 37 38 39 41 41 40 38 37 36 35 33 31 28 26 25 25 23 20 16 15 16 17 18 16 16 17 21 21 17 16 18 15 9 7 10 12 10 4 3 4 5 9 8 6 7 10 11 13 16 19 22 24 25 25 24 24 28 31 30 27 26 27 29 26 23 24 25
50 49 46 40 40 46 49 45 42 40 39 40 41 41 40 39 38 37 37 37 39 40 40 38 37 36 34 33 32 31 28 26 24 24 25 24 21 17 15 16 17 18 19 19 17 14 13 13 14 12 9 8 10 8 5 4 6 6 6 9 7 4 7 11 11 13 17 21 23 24 24 25 26 27 29 31 28 26 26 27 27 24 22 22 23
Wind_Direction
333 331 336 336 334 331 335 340 335 330 333 333 330 328 325 322 322 318 314 310 305 303 302 300 301 306 304 298 297 295 291 289 291 291 279 268 261 258 259 259 261 266 263 257 253 249 246 242 240 239 239 240 243 242 237 234 232 231 231 231 232 231 231 231 231 231 229 227 227 230 235 238 240 243 245 247 248 250 250 250 251 252 254 253 252
337 335 336 334 332 331 335 337 334 331 331 329 326 323 320 318 318 316 311 306 301 298 297 299 304 307 304 300 301 300 298 293 288 287 284 281 276 268 266 268 268 270 267 260 256 252 249 245 243 242 238 235 239 243 242 236 232 230 229 229 230 232 233 231 228 225 223 222 220 217 221 230 236 239 243 245 246 247 247 247 249 251 252 253 253
343 340 336 335 335 335 334 332 330 329 328 326 322 318 315 315 316 313 308 303 298 297 296 297 302 306 304 302 304 301 298 295 291 287 280 279 284 283 280 275 272 274 271 264 257 253 250 248 246 244 241 238 236 237 240 239 233 230 229 229 229 229 231 230 228 228 225 219 213 211 214 216 221 231 236 240 242 243 245 246 247 249 250 252 253
345 341 340 338 336 334 330 326 324 324 325 324 319 316 314 314 316 313 308 303 298 297 296 297 300 302 303 304 304 303 302 301 298 296 289 280 279 287 291 283 279 283 283 275 265 258 253 251 249 246 242 240 238 236 236 239 237 232 230 231 230 227 226 226 227 229 226 218 209 206 211 207 212 228 230 231 237 240 243 245 246 248 249 250 251
345 343 342 337 332 330 327 323 321 320 321 322 317 312 313 315 316 312 308 304 302 300 298 299 302 303 304 305 303 302 303 302 298 296 295 289 279 279 283 283 285 289 289 285 280 271 261 254 252 251 246 239 238 238 236 236 238 236 232 232 231 229 227 225 224 225 225 225 220 211 206 205 218 230 227 226 232 236 240 243 245 246 247 249 249
342 342 341 337 333 331 327 324 321 317 317 322 319 314 315 317 316 312 308 305 305 307 305 304 305 306 306 304 301 300 300 298 296 294 291 288 284 278 273 273 278 283 286 287 287 285 276 264 256 253 253 246 239 238 237 235 237 237 233 234 235 233 230 226 223 223 223 225 226 224 224 224 225 224 218 219 226 231 237 240 242 244 245 246 247
337 340 338 336 335 334 331 327 324 321 321 324 322 318 319 319 316 313 308 305 305 308 309 310 308 305 303 301 299 297 296 293 293 293 289 284 283 282 280 280 279 276 277 277 280 285 285 278 268 258 254 251 244 238 236 235 236 238 235 234 237 236 233 228 225 224 221 220 223 226 228 229 231 228 221 216 209 214 225 230 234 237 239 241 243
335 337 336 335 336 336 334 331 328 326 326 327 324 322 322 320 317 313 309 308 310 312 314 314 311 307 303 300 297 294 292 291 292 292 291 286 282 281 282 285 285 279 275 269 267 272 277 279 277 269 260 254 250 244 239 235 235 237 236 233 235 235 232 230 230 227 222 221 221 222 221 222 230 237 236 232 220 211 212 218 226 230 233 237 239
330 331 332 334 335 336 335 333 330 328 329 328 327 326 324 321 318 316 312 309 311 315 316 315 311 307 304 301 298 294 291 290 291 289 289 289 285 281 279 281 284 283 278 271 265 263 264 267 270 271 267 261 255 250 245 240 235 234 234 232 232 233 232 230 232 232 230 228 224 221 222 221 225 233 237 236 231 222 213 213 217 220 226 232 234
323 324 328 334 337 336 336 334 331 328 328 328 329 328 326 323 320 318 314 309 310 314 316 316 313 309 307 304 300 297 293 291 291 288 286 287 285 283 279 278 280 281 282 279 272 266 263 262 262 262 265 265 260 254 249 244 239 236 233 231 228 229 232 231 230 232 234 235 231 225 223 221 221 224 226 227 227 226 224 222 220 220 227 232 232
321 322 328 335 336 336 336 335 331 328 327 328 329 329 328 325 323 319 310 305 311 317 318 318 315 312 309 307 303 298 295 292 290 288 286 285 284 282 280 277 277 280 283 279 273 271 268 265 262 258 256 258 259 256 252 248 244 240 236 233 229 226 226 229 229 228 230 235 235 231 227 224 221 221 222 221 221 223 226 225 223 224 230 237 237
328 328 332 335 334 335 335 334 331 328 327 327 326 325 324 324 325 320 313 311 317 320 319 317 315 313 309 309 308 304 299 295 290 287 285 283 281 281 281 279 276 275 276 274 274 276 274 270 269 265 257 250 250 254 254 251 247 244 239 236 234 231 227 226 226 225 226 230 234 234 232 229 226 225 225 223 222 224 226 226 225 223 225 230 236
336 335 334 333 333 333 333 332 331 327 325 324 323 323 325 327 328 324 322 325 324 318 315 314 314 312 306 306 310 308 304 300 294 288 285 284 281 279 279 278 276 275 273 272 275 277 276 274 274 275 268 256 251 249 251 252 248 246 244 240 238 235 231 228 226 225 224 226 232 236 235 231 229 229 229 227 226 225 227 229 230 227 227 228 228
338 334 330 331 331 331 331 331 329 326 326 324 323 327 329 331 331 328 326 327 323 316 315 315 315 312 307 307 310 309 306 304 299 292 287 284 281 277 274 273 274 275 275 273 273 275 276 276 276 277 276 270 262 254 251 252 247 242 242 243 243 240 234 230 228 226 225 223 226 233 236 233 230 229 229 230 229 226 226 227 226 221 222 227 227
334 328 326 329 330 328 329 328 326 326 327 325 325 328 329 329 330 325 322 322 319 315 316 317 316 313 309 307 308 307 305 305 302 296 290 286 284 281 275 273 274 273 272 273 273 273 273 274 275 274 274 275 272 264 256 253 249 242 238 238 240 243 240 234 231 229 228 225 224 228 234 235 232 228 228 230 232 231 230 227 225 218 207 212 223
328 325 326 329 328 326 325 326 325 325 326 326 327 329 329 328 326 321 317 318 316 317 321 322 319 316 309 304 304 304 303 304 302 299 295 292 292 288 279 274 276 274 269 269 270 268 269 272 274 274 273 274 273 269 261 254 251 247 241 238 237 238 239 236 234 232 230 230 228 227 229 233 235 231 227 228 231 234 234 230 228 225 216 208 212
327 328 329 329 327 324 324 326 325 325 326 328 329 330 327 324 322 320 318 318 319 323 328 329 326 322 315 308 305 304 303 302 301 300 298 297 298 296 286 275 275 275 269 267 269 268 268 269 270 270 271 272 272 271 267 259 252 248 246 244 242 240 238 236 235 233 232 234 233 230 228 230 235 235 231 229 230 232 234 232 231 231 227 219 214
329 331 329 327 326 325 325 325 324 324 327 328 330 329 324 320 321 320 317 318 321 324 328 329 325 321 317 314 309 306 303 301 301 301 302 303 302 300 293 278 274 276 272 268 268 266 267 266 266 268 269 270 271 269 269 266 260 252 247 246 247 245 243 240 238 237 236 236 237 235 232 230 231 233 233 231 230 231 232 232 230 231 230 226 224
332 332 329 327 329 328 326 325 323 325 326 327 326 324 321 320 319 316 314 317 318 316 320 324 323 319 316 313 310 307 305 305 305 303 305 306 303 301 298 283 272 275 275 273 270 266 266 266 264 265 266 266 267 266 266 268 267 262 254 249 248 247 247 247 245 243 242 240 240 241 239 236 233 232 232 231 230 230 232 232 231 229 228 228 230
332 330 329 329 330 329 327 325 324 323 324 324 323 320 319 319 314 310 311 313 309 309 317 322 323 321 316 313 310 308 306 304 302 301 302 303 300 299 299 287 272 270 271 270 270 266 265 266 265 264 263 263 264 266 265 265 266 268 266 259 252 249 248 249 250 250 248 246 244 244 245 245 241 238 236 236 234 232 231 232 233 231 228 228 229
329 328 328 328 327 326 325 324 322 320 320 322 322 318 314 312 309 305 305 307 307 310 317 321 321 318 314 311 309 310 309 302 297 296 296 296 295 295 298 291 273 265 266 264 263 263 261 260 260 259 260 260 260 261 261 262 262 263 267 268 264 257 251 249 250 251 252 251 250 250 250 250 248 245 243 242 241 238 234 234 234 233 231 229 229
326 327 326 325 326 325 322 321 320 318 318 321 321 316 310 308 308 303 301 306 311 314 316 318 319 317 312 306 304 310 312 303 295 294 291 290 289 287 292 291 275 262 262 263 263 266 267 264 261 256 253 253 255 257 257 259 259 258 260 262 265 264 260 255 251 249 249 251 252 253 254 253 250 248 247 247 245 243 239 236 235 235 235 234 231
324 325 325 324 325 324 321 319 319 318 319 320 318 314 309 306 307 303 301 307 311 313 314 315 316 315 311 305 302 308 311 306 300 296 291 289 287 285 287 286 276 266 263 266 268 273 279 281 280 274 263 253 250 252 254 255 255 257 257 258 261 265 266 264 260 255 249 247 248 251 253 254 251 248 248 248 246 244 241 238 238 238 238 237 234
324 324 324 323 323 323 322 320 320 319 319 318 315 312 309 308 308 304 303 308 311 313 314 314 314 313 312 308 305 306 307 306 303 298 294 292 288 286 286 282 278 275 273 274 273 273 276 281 284 285 279 267 255 249 248 249 251 255 257 257 258 261 264 265 264 262 256 249 247 250 251 252 250 247 247 248 246 245 242 240 239 239 239 238 236
325 324 323 323 323 322 323 322 321 321 320 319 315 311 309 310 311 306 305 309 312 313 314 315 314 314 314 312 308 305 304 304 302 299 297 296 290 286 285 281 278 278 276 274 271 269 271 275 277 278 280 278 268 255 248 246 248 251 253 255 256 258 261 263 264 263 261 258 256 256 255 252 248 246 246 247 246 245 244 241 239 238 238 237 235
324 324 324 324 325 326 326 324 322 321 321 320 317 312 311 313 312 307 305 310 313 315 314 313 312 312 312 310 306 302 301 302 303 303 300 297 292 285 282 279 276 275 274 272 269 270 272 274 273 272 274 277 275 264 253 246 246 248 250 254 257 258 258 260 261 261 261 262 261 261 259 254 249 247 247 247 247 247 245 242 240 239 237 235 232
325 327 328 329 329 328 326 324 321 321 323 323 321 318 316 315 312 309 309 312 313 313 313 312 312 312 310 307 303 301 302 302 303 304 302 299 296 289 284 281 278 274 272 271 270 271 273 274 270 267 267 270 271 265 256 249 247 247 249 253 255 256 256 257 258 260 262 264 264 264 260 254 250 248 249 249 249 249 247 245 243 241 237 233 230
331 332 333 332 330 327 326 324 323 323 323 323 323 321 318 316 314 312 313 314 313 312 313 315 315 314 310 306 304 304 303 302 301 302 301 301 299 293 288 285 282 279 276 274 273 272 273 271 266 264 264 266 266 261 255 254 251 248 248 250 252 254 256 256 256 258 261 263 265 265 264 260 254 251 250 251 250 251 250 248 245 241 237 232 230
335 334 333 330 328 327 326 325 323 321 320 323 325 323 320 317 314 313 314 314 312 312 314 316 316 313 309 307 306 305 304 304 304 303 300 300 299 296 292 289 286 282 278 275 272 270 268 265 261 260 261 264 262 256 253 255 254 250 248 248 251 255 256 257 257 259 261 262 263 265 267 267 263 257 254 252 252 252 251 250 247 241 236 232 228
333 332 330 329 327 326 326 326 325 324 325 329 329 324 320 317 315 314 314 313 312 312 314 317 316 312 310 310 310 308 307 306 305 303 300 298 296 295 294 293 291 286 281 278 274 269 265 261 261 261 260 261 258 251 251 255 256 253 250 249 251 254 256 258 260 261 262 263 264 266 267 268 265 261 257 254 253 253 252 252 250 244 238 232 226
332 331 329 329 328 327 327 328 328 327 327 326 326 323 318 315 316 316 313 312 313 314 318 319 316 311 308 308 310 310 308 307 305 303 301 298 296 294 292 293 292 287 281 278 277 275 268 261 262 265 263 260 256 251 251 255 256 254 251 249 251 252 254 256 257 257 258 260 262 264 266 266 263 262 261 259 255 251 251 252 249 244 240 236 229
332 330 330 330 329 327 327 326 324 323 323 323 323 322 317 316 318 317 314 314 314 315 319 319 313 308 307 308 310 310 308 307 306 305 303 300 297 295 295 296 296 289 279 272 269 269 266 262 265 267 262 255 253 253 255 257 255 252 250 249 250 252 253 254 254 254 256 257 260 263 266 265 263 263 263 262 258 253 251 251 248 244 240 238 235
328 328 330 330 330 329 325 323 323 324 325 324 320 318 320 321 319 317 317 319 318 315 316 316 313 310 310 311 312 310 308 308 308 307 305 302 299 300 302 302 298 292 283 273 265 263 265 267 265 262 256 253 255 257 259 259 257 253 251 250 250 252 254 256 257 257 258 260 262 264 265 265 266 265 264 262 259 255 252 249 247 244 240 237 236
327 329 330 329 331 331 327 326 326 326 326 325 320 317 325 326 321 317 320 322 320 317 315 315 315 312 312 313 313 311 310 310 310 309 307 305 305 307 308 304 297 291 287 281 275 276 282 282 267 257 257 259 258 259 261 262 260 255 252 250 250 252 254 256 258 259 261 263 263 263 262 265 267 267 264 262 259 254 249 243 239 238 237 234 233
327 330 332 332 330 328 327 326 324 324 326 325 319 319 324 324 321 321 323 321 319 318 316 315 315 314 314 314 313 313 313 312 311 311 308 308 309 311 311 306 297 291 289 289 288 289 292 289 273 262 263 262 261 263 265 266 264 258 253 251 251 252 253 255 258 259 260 261 261 259 260 263 265 264 263 264 261 255 248 239 232 232 233 231 229
328 329 332 333 330 325 325 325 322 322 325 323 320 323 325 323 322 323 323 321 319 318 318 317 317 316 316 315 314 313 313 313 313 312 311 312 314 315 314 307 297 292 291 292 294 296 296 288 275 267 267 267 267 268 268 266 263 258 254 253 252 252 253 255 257 258 258 259 259 258 261 262 260 260 262 263 260 255 248 239 230 227 227 227 226
328 328 328 331 330 325 322 323 323 324 326 325 323 326 326 323 323 323 322 321 320 319 318 319 318 317 315 315 314 313 313 314 315 316 317 319 318 318 317 312 306 303 302 302 306 310 304 291 281 274 270 270 272 273 274 272 269 264 259 255 253 254 256 257 259 259 256 256 258 260 262 261 258 258 260 259 255 250 245 237 228 222 221 222 223
328 330 328 329 331 329 324 323 323 324 326 326 324 324 324 323 323 323 321 321 320 320 320 320 319 317 316 315 314 312 313 315 317 320 321 321 322 323 324 325 319 312 310 313 316 310 297 285 282 279 276 278 280 282 283 281 278 272 263 257 256 257 257 258 261 260 257 258 263 265 264 260 257 257 256 254 249 242 238 234 224 218 216 217 217
329 332 330 328 329 331 329 325 324 325 327 328 326 325 324 322 322 322 322 321 321 320 321 320 319 318 316 314 313 313 315 318 321 324 324 323 327 332 335 333 324 314 313 313 306 297 289 286 285 283 284 286 287 289 289 287 284 278 269 264 262 260 259 259 260 259 259 264 269 268 263 259 256 255 252 250 243 231 230 230 221 214 212 213 213
329 332 331 329 331 333 331 328 327 327 327 328 327 326 324 322 322 322 321 321 321 320 320 319 318 317 315 314 315 317 319 322 324 327 327 328 335 341 338 328 319 312 312 311 305 300 298 299 299 295 294 291 287 288 288 285 283 279 274 270 263 258 261 264 262 258 259 264 268 265 260 255 252 252 249 247 238 224 223 225 218 212 211 210 209
330 331 330 329 333 334 330 327 328 327 327 328 328 326 325 323 322 322 321 322 321 320 319 319 318 317 316 318 321 323 324 326 329 331 331 336 345 344 335 327 321 314 307 307 310 312 310 310 310 305 299 295 292 290 287 282 278 274 270 264 255 255 261 263 259 256 257 262 264 262 257 251 247 247 244 240 232 220 219 220 216 213 212 209 208
331 332 328 327 332 334 331 328 328 328 328 329 328 326 324 323 322 321 322 322 322 321 321 320 319 319 321 324 326 327 328 331 336 337 338 345 352 347 339 337 333 324 314 309 312 314 313 311 309 303 300 302 302 299 294 288 281 274 269 261 255 259 260 254 250 252 255 259 261 259 256 249 243 243 239 229 218 212 214 217 215 213 211 208 207
331 332 328 325 331 336 333 329 329 330 329 329 329 327 325 323 322 323 324 324 324 323 323 322 322 324 326 328 328 330 332 337 342 344 346 353 359 354 346 341 335 331 329 329 327 324 319 312 305 302 305 309 311 311 307 300 290 280 272 262 255 255 251 244 244 249 254 258 259 255 251 245 239 238 231 214 203 204 209 213 213 210 207 206 204
331 332 329 326 331 335 334 330 330 329 328 329 329 327 325 324 324 326 327 326 325 325 325 326 327 328 329 330 331 334 339 343 347 349 352 358 0 355 345 339 337 336 335 334 331 327 322 314 309 310 315 319 321 323 320 310 298 286 273 261 250 241 237 239 243 247 251 255 253 248 244 238 230 223 213 201 195 198 204 208 207 200 199 201 201
331 332 330 328 330 334 334 331 330 330 329 329 329 327 326 326 328 330 329 327 327 328 329 330 330 330 330 332 335 339 343 347 348 349 353 358 359 352 343 340 340 336 332 332 330 328 325 320 318 320 324 325 324 324 322 313 301 292 277 260 242 225 226 236 239 239 241 243 244 243 235 221 211 203 196 190 189 194 201 203 195 187 190 197 198
331 332 331 327 329 334 335 331 330 330 331 331 330 329 328 328 330 332 331 330 330 331 332 332 332 332 333 336 339 342 346 349 351 352 355 357 356 352 348 346 340 331 328 332 333 331 329 326 323 321 320 319 319 321 322 318 309 300 284 255 219 200 210 221 219 218 223 227 234 234 215 194 188 186 182 183 187 190 194 191 183 184 192 198 196
331 333 331 327 328 333 335 332 331 331 330 331 332 332 331 331 333 333 333 333 333 333 333 333 333 334 336 339 342 345 349 351 352 353 354 355 356 354 350 349 344 334 330 333 333 330 328 324 316 311 313 315 313 317 325 327 319 310 296 205 173 175 192 203 205 207 212 214 217 210 187 173 172 175 178 182 183 181 177 176 179 186 193 195 194
331 333 331 328 329 334 335 333 332 332 331 331 333 333 333 335 336 336 336 336 335 335 334 334 334 335 337 340 342 345 349 350 349 349 351 354 357 355 351 354 354 345 336 333 331 329 328 321 308 309 315 317 314 317 327 331 326 326 233 169 172 180 192 197 197 194 192 188 179 169 165 166 169 176 177 174 172 170 170 173 179 184 188 189 190
331 333 331 326 328 335 336 333 332 333 332 331 332 333 335 337 338 338 338 337 336 335 334 334 335 336 337 340 341 343 347 347 345 346 350 355 359 355 352 355 356 352 349 340 330 327 326 318 312 314 318 320 320 323 328 330 344 85 162 183 183 187 191 185 178 177 173 165 160 161 165 168 172 176 173 168 166 167 169 174 180 184 188 189 189
331 333 331 326 328 336 337 334 333 334 333 332 333 334 336 338 339 340 340 339 337 336 335 335 337 338 338 340 340 343 348 348 346 347 349 354 360 1 2 359 353 355 4 352 333 328 328 325 326 332 338 334 328 328 333 345 113 127 173 188 183 182 181 174 171 174 169 163 163 165 168 170 173 173 169 166 166 168 171 177 183 187 190 190 188
331 333 332 329 331 336 337 335 335 335 335 334 334 335 338 340 341 342 342 340 338 336 335 336 338 339 340 341 340 343 348 350 350 351 351 352 353 357 7 11 3 4 10 1 347 356 9 0 354 358 356 343 336 338 359 90 126 137 173 185 180 173 175 175 177 179 172 166 166 168 169 170 171 170 168 167 168 171 175 179 181 181 183 184 184